Location: Sungai Bunut
(2.6333°N, 113.7333°E)
Time: 14:25:31
(UTC+00:00)

Altair - Pass Details

Date: 09 December 2023
Orbit: 1501 x 1682 km, 47.2° (Epoch: 24 February)

Event Time Altitude Azimuth Distance (km) Brightness Sun altitude
Rises 05:58:19 0° 350° (N) 4,636 9.8 54.6°
Reaches altitude 10° 06:03:28 10° 14° (NNE) 3,643 9.3 53.7°
Maximum altitude 06:07:50 14° 44° (NE) 3,321 9.1 52.9°
Drops below altitude 10° 06:12:11 10° 73° (ENE) 3,650 9.3 52.1°
Sets 06:17:17 0° 96° (E) 4,650 9.8 51.2°
